NUSAT-4 (ADA) (43195 NORAD) Tracking and Keplerian Element Data

This shows tracking and keplerian element data for the satellite.

Feedback or suggestion? Click here.




ElementValue
Catalog43195
NameNUSAT-4 (ADA)
Epoch Orbit4331
Epoch Day317.84293201
Epoch Year2018
RAAN83.8724
Inclination97.3717
Eccentricity0.0017364
Argument of Perigee351.2913
Mean Anonmoly127.6205
Mean Motion15.23545466
Decay Rate1.209E-05
L11 43195U 18015D 18317.84293201 .00001209 00000-0 53396-4 0 9998
L22 43195 97.3717 83.8724 0017364 351.2913 127.6205 15.23545466 43310

Live tracking and technical data element details for NUSAT-4 (ADA) (NORAD 43195). NUSAT-4 (ADA) can be tracked NOW for your location showing map with azimuth and elevation plus other details from your city location.

Track the satellite on the map from your city or location and see movement details for azimuth, elevation, latitude, longitude, range, height, and movement on the map or in text.







IsCatalogInMostPopularTable: catalog: 43195, numindb: 109
Update: records affected: 1



GetName: 43195 NUSAT-4 (ADA)

Hit Count: updated at: Wed, 14 Nov 2018 10:59:52 GMT